FENGYUN 1C DEB

Satellite information

Favourite Embed

Satellite Type and Status

DEBRISIN ORBIT

Key statistics

Satellite FENGYUN 1C DEB at a glance.

Uptime

9555

Days in orbit

Revolutions

≈ 14.2

Per day

Orbit

SSO

Sun Synchronous Orbit

Inclination

99.7

Latest

Satellite identification and parameters

Extended collection of information and parameters for FENGYUN 1C DEB.

Object identification

Identified? True

Debris? True

Object name: FENGYUN 1C DEB

International designator: 1999-025ERE

Object number (NORAD): 38157

Object ID (CCSDS): 38157

Country: PEOPLES REPUBLIC OF CHINA (PRC)

Current information (Y/N): Y

RCS size: SMALL

Orbital parameters

Period: 101.355 minutes

Inclination: 99.6676 deg

SMA: 7200.938 km

Apoapsis: 1021.55 km

Periapsis: 624.057 km

RAAN: 77.7611 deg

Eccentricy: 0.0276001

Argument of periapsis: 205.4956 deg

Mean anomaly: 153.2388 deg

Mean motion: 14.20754781 rev/day

Mean motion (dot): 0.0000092 rev/day2

B* drag term: 0.00030933 1/REarth

Two-line elements (TLE)

Creation date: July 5, 2025, 5:45 p.m.

Reference frame: TEME

Reference center: EARTH

Epoch: July 4, 2025, 11:26 p.m. UTC

TLE line 0: 0 FENGYUN 1C DEB

TLE line 1: 1 38157U 99025ERE 25185.97690143 .00000920 00000-0 30933-3 0 9991

TLE line 2: 2 38157 99.6676 77.7611 0276001 205.4956 153.2388 14.20754781739643

Live tracking on map

Real-time ground track for satellite FENGYUN 1C DEB.

In-orbit conjunctions

A list of the most updated potential collisions computed for object FENGYUN 1C DEB.

Target Orbit TCA Probability of collision Miss distance Type
SL-14 R/B LEO 2025-04-15 04:58:52 0.0002000038 203.0 (m) ROCKET BODY
COSMOS 1349 LEO 2025-03-15 12:47:02 0.0001379428 204.0 (m) PAYLOAD
SL-8 R/B LEO 2025-02-07 13:28:22 0.0006284817 65.0 (m) ROCKET BODY

Associated space launch

Chinese polar orbiting meteorological satellite

FENGYUN 1C DEB was lifted into orbit during the mission ‘Long March 4B | Feng Yun 1C’, on board a Long March 4B space rocket.

The launch took place on May 10, 1999, 1:33 a.m. from Launch Complex 7.

For more information about the launch, click the button.

Launch to space Long March 4B | Feng Yun 1C
Long March 4B | Feng Yun 1C

Agency: N/A

Status: Launch Successful

Launch date: May 10, 1999, 1:33 a.m. UTC

Rocket: Long March 4B

Launch pad: Launch Complex 7

Location: Taiyuan Satellite Launch Center, People's Republic of China

...

Latest news about this satellite

There are no fresh news available about this satellite. Check back as we update our databases every day.


Newsletter sign-up

Weekly statistics, charts and insights to help you stay on top of the space industry.